UAL58 KSFO-EDDF

Flight info

Callsign UAL58
Flight time N/A
Altitude 35000
Route SNTNA2 DEDHD DCT LKV DCT MLP DCT STIGS DCT TULOV/N0471F370 DCT 56N100W 59N090W DCT DUGNO DCT GRIBS/M082F390 DCT LIBOR DCT 62N050W 62N040W 61N030W 60N020W DCT GOMUP/N0474F390 DCT GINGA/N0479F410 DCT ERKIT N110 DOLAS DCT NAVPI DCT OTMEC DCT SOGPO DCT DIXAT DIXAT1A
Aircraft B772/H-SDE2E3FGHIJ5LORVWXY/LB1D1

Departure

Time N/A
Airport San Francisco International Airport (KSFO)

Arrival

Time 2026-04-14 08:31
Airport Frankfurt Main Airport (EDDF)
Time Latitude Longitude Altitude Speed Heading
2026-04-14 07:42 52.40784 3.76563 41147 ft 502 kts 103°
2026-04-14 07:42 52.39926 3.82095 41154 ft 502 kts 103°
2026-04-14 07:43 52.38204 3.93146 41155 ft 502 kts 103°
2026-04-14 07:43 52.36469 4.04206 41160 ft 501 kts 103°
2026-04-14 07:44 52.34722 4.15261 41156 ft 501 kts 103°
2026-04-14 07:44 52.33267 4.24417 41146 ft 501 kts 104°
2026-04-14 07:45 52.31220 4.37211 41141 ft 500 kts 104°
2026-04-14 07:45 52.29448 4.48211 41149 ft 500 kts 104°
2026-04-14 07:46 52.27667 4.59190 41141 ft 500 kts 104°
2026-04-14 07:46 52.26167 4.68384 41142 ft 500 kts 104°
2026-04-14 07:47 52.24365 4.79362 41158 ft 501 kts 104°
2026-04-14 07:47 52.22554 4.90327 41156 ft 501 kts 104°
2026-04-14 07:48 52.20744 5.01214 41161 ft 500 kts 104°
2026-04-14 07:48 52.18903 5.12221 41146 ft 500 kts 104°
2026-04-14 07:49 52.17065 5.23133 41139 ft 499 kts 105°
2026-04-14 07:49 52.15240 5.33910 41144 ft 498 kts 105°
2026-04-14 07:50 52.13390 5.44759 41162 ft 497 kts 105°
2026-04-14 07:50 52.11537 5.55566 41144 ft 495 kts 105°
2026-04-14 07:51 52.09677 5.66347 41169 ft 494 kts 105°
2026-04-14 07:51 52.07813 5.77093 41153 ft 494 kts 105°
2026-04-14 07:52 52.05730 5.87705 41172 ft 493 kts 111°
2026-04-14 07:52 52.03203 5.98050 41158 ft 493 kts 112°
2026-04-14 07:53 52.00681 6.08408 41135 ft 492 kts 111°
2026-04-14 07:53 51.98149 6.18724 41134 ft 492 kts 116°
2026-04-14 07:54 51.94353 6.27883 41158 ft 490 kts 133°
2026-04-14 07:54 51.91917 6.31763 40794 ft 494 kts 141°
2026-04-14 07:54 51.89250 6.35270 40182 ft 494 kts 143°
2026-04-14 07:54 51.86556 6.38683 39719 ft 488 kts 143°
2026-04-14 07:55 51.83924 6.41994 39287 ft 483 kts 143°
2026-04-14 07:55 51.81260 6.45367 38844 ft 479 kts 143°
2026-04-14 07:55 51.78657 6.48696 38316 ft 474 kts 142°
2026-04-14 07:55 51.76097 6.51995 37852 ft 469 kts 142°
2026-04-14 07:56 51.73596 6.55230 37417 ft 464 kts 142°
2026-04-14 07:56 51.71091 6.58474 37012 ft 459 kts 142°
2026-04-14 07:56 51.68622 6.61669 36593 ft 454 kts 143°
2026-04-14 07:56 51.66169 6.64838 36189 ft 449 kts 143°
2026-04-14 07:57 51.63714 6.68003 35773 ft 445 kts 143°
2026-04-14 07:57 51.61339 6.71060 35359 ft 441 kts 143°
2026-04-14 07:57 51.58923 6.74163 34941 ft 437 kts 143°
2026-04-14 07:57 51.56582 6.77167 34547 ft 434 kts 143°
2026-04-14 07:58 51.54226 6.80185 34124 ft 431 kts 143°
2026-04-14 07:58 51.51893 6.83170 33643 ft 428 kts 143°
2026-04-14 07:58 51.49568 6.86140 33201 ft 424 kts 143°
2026-04-14 07:58 51.47278 6.89062 32785 ft 420 kts 143°
2026-04-14 07:59 51.44998 6.91968 32367 ft 416 kts 143°
2026-04-14 07:59 51.42748 6.94831 31963 ft 412 kts 143°
2026-04-14 07:59 51.40502 6.97687 31556 ft 408 kts 143°
2026-04-14 07:59 51.38288 7.00498 31144 ft 405 kts 144°
2026-04-14 08:00 51.36089 7.03285 30723 ft 402 kts 144°
2026-04-14 08:00 51.33904 7.06052 30325 ft 399 kts 143°
2026-04-14 08:00 51.31741 7.08790 29898 ft 396 kts 143°
2026-04-14 08:00 51.29590 7.11506 29439 ft 392 kts 144°
2026-04-14 08:01 51.27461 7.14192 29031 ft 389 kts 144°
2026-04-14 08:01 51.25253 7.16590 28598 ft 382 kts 153°
2026-04-14 08:01 51.22976 7.18722 28063 ft 381 kts 146°
2026-04-14 08:01 51.20953 7.21490 27574 ft 385 kts 135°
2026-04-14 08:02 51.19261 7.24793 27197 ft 384 kts 128°
2026-04-14 08:02 51.17664 7.28163 26864 ft 380 kts 129°
2026-04-14 08:02 51.16046 7.31477 26551 ft 377 kts 130°
2026-04-14 08:02 51.14427 7.34753 26215 ft 375 kts 130°
2026-04-14 08:03 51.12812 7.38007 25870 ft 373 kts 130°
2026-04-14 08:03 51.11212 7.41223 25532 ft 371 kts 130°
2026-04-14 08:03 51.09619 7.44424 25219 ft 369 kts 130°
2026-04-14 08:03 51.08028 7.47616 24900 ft 366 kts 130°
2026-04-14 08:04 51.06470 7.50741 24591 ft 364 kts 130°
2026-04-14 08:04 51.04883 7.53922 24266 ft 362 kts 130°
2026-04-14 08:04 51.03341 7.57007 23948 ft 360 kts 130°
2026-04-14 08:04 51.01773 7.60146 23697 ft 355 kts 131°
2026-04-14 08:05 51.00273 7.63147 23469 ft 349 kts 131°
2026-04-14 08:05 50.98748 7.66188 23070 ft 348 kts 131°
2026-04-14 08:05 50.97256 7.69157 22622 ft 349 kts 131°
2026-04-14 08:05 50.95743 7.72164 22219 ft 348 kts 131°
2026-04-14 08:06 50.94239 7.75151 21854 ft 346 kts 131°
2026-04-14 08:06 50.92738 7.78132 21496 ft 345 kts 131°
2026-04-14 08:06 50.91248 7.81088 21143 ft 343 kts 131°
2026-04-14 08:06 50.89755 7.84046 20777 ft 342 kts 130°
2026-04-14 08:07 50.88272 7.86981 20419 ft 341 kts 130°
2026-04-14 08:07 50.86791 7.89908 20078 ft 340 kts 130°
2026-04-14 08:07 50.85316 7.92821 19720 ft 339 kts 130°
2026-04-14 08:07 50.83832 7.95746 19168 ft 344 kts 130°
2026-04-14 08:08 50.82314 7.98734 18417 ft 355 kts 129°
2026-04-14 08:08 50.80757 8.01802 17868 ft 356 kts 131°
2026-04-14 08:08 50.79210 8.04845 17322 ft 356 kts 131°
2026-04-14 08:08 50.77652 8.07905 16769 ft 357 kts 131°
2026-04-14 08:09 50.76093 8.10961 16276 ft 357 kts 131°
2026-04-14 08:09 50.74546 8.13991 15883 ft 353 kts 131°
2026-04-14 08:09 50.73015 8.16990 15659 ft 348 kts 132°
2026-04-14 08:09 50.71503 8.19944 15399 ft 346 kts 132°
2026-04-14 08:10 50.69984 8.22908 15147 ft 348 kts 132°
2026-04-14 08:10 50.68457 8.25882 14917 ft 349 kts 132°
2026-04-14 08:10 50.66937 8.28842 14669 ft 347 kts 132°
2026-04-14 08:10 50.65417 8.31799 14419 ft 346 kts 132°
2026-04-14 08:11 50.63906 8.34737 14171 ft 344 kts 132°
2026-04-14 08:11 50.62406 8.37650 13953 ft 342 kts 132°
2026-04-14 08:11 50.60908 8.40554 13678 ft 340 kts 132°
2026-04-14 08:11 50.59412 8.43446 13408 ft 339 kts 132°
2026-04-14 08:12 50.57928 8.46315 13132 ft 339 kts 132°
2026-04-14 08:12 50.56458 8.49156 12817 ft 339 kts 131°
2026-04-14 08:12 50.54949 8.52065 12512 ft 339 kts 131°
2026-04-14 08:12 50.53477 8.54904 12212 ft 339 kts 131°
2026-04-14 08:13 50.51968 8.57811 11885 ft 339 kts 131°
2026-04-14 08:13 50.50498 8.60639 11591 ft 338 kts 131°
2026-04-14 08:13 50.49008 8.63502 11296 ft 338 kts 131°
2026-04-14 08:13 50.47526 8.66347 10997 ft 337 kts 131°
2026-04-14 08:14 50.46053 8.69172 10701 ft 332 kts 131°
2026-04-14 08:14 50.44597 8.71961 10407 ft 327 kts 131°
2026-04-14 08:14 50.43157 8.74717 10116 ft 325 kts 131°
2026-04-14 08:14 50.41728 8.77450 9790 ft 325 kts 131°
2026-04-14 08:15 50.40294 8.80186 9471 ft 324 kts 131°
2026-04-14 08:15 50.38869 8.82905 9149 ft 323 kts 130°
2026-04-14 08:15 50.37449 8.85609 8884 ft 320 kts 130°
2026-04-14 08:15 50.36040 8.88292 8648 ft 314 kts 130°
2026-04-14 08:16 50.34671 8.90897 8384 ft 306 kts 130°
2026-04-14 08:16 50.33339 8.93428 8153 ft 299 kts 130°
2026-04-14 08:16 50.32033 8.95921 7916 ft 291 kts 128°
2026-04-14 08:16 50.31116 8.98677 7646 ft 286 kts 103°
2026-04-14 08:17 50.31053 9.01729 7434 ft 281 kts 81°
2026-04-14 08:17 50.31436 9.04728 7250 ft 280 kts 76°
2026-04-14 08:17 50.31890 9.07678 7182 ft 277 kts 75°
2026-04-14 08:17 50.32349 9.10608 7146 ft 280 kts 75°
2026-04-14 08:18 50.32817 9.13574 7139 ft 280 kts 75°
2026-04-14 08:18 50.33286 9.16539 7131 ft 280 kts 75°
2026-04-14 08:18 50.33754 9.19494 7126 ft 280 kts 75°
2026-04-14 08:18 50.34222 9.22459 7126 ft 280 kts 75°
2026-04-14 08:19 50.34690 9.25408 7124 ft 280 kts 75°
2026-04-14 08:19 50.35167 9.28371 7111 ft 281 kts 75°
2026-04-14 08:19 50.35647 9.31338 7117 ft 280 kts 76°
2026-04-14 08:19 50.35783 9.34339 7119 ft 279 kts 100°
2026-04-14 08:20 50.35047 9.37149 7137 ft 284 kts 128°
2026-04-14 08:20 50.33569 9.39173 7131 ft 284 kts 155°
2026-04-14 08:20 50.31704 9.39974 7124 ft 277 kts 178°
2026-04-14 08:20 50.29803 9.39792 7117 ft 272 kts 196°
2026-04-14 08:21 50.28006 9.38863 7133 ft 273 kts 204°
2026-04-14 08:21 50.26263 9.37688 7130 ft 275 kts 206°
2026-04-14 08:21 50.24521 9.36427 7117 ft 276 kts 206°
2026-04-14 08:21 50.22849 9.34979 7131 ft 275 kts 218°
2026-04-14 08:22 50.21458 9.32952 7115 ft 273 kts 237°
2026-04-14 08:22 50.20579 9.30355 7007 ft 270 kts 248°
2026-04-14 08:22 50.19889 9.27687 6890 ft 270 kts 250°
2026-04-14 08:22 50.19217 9.24953 6796 ft 269 kts 250°
2026-04-14 08:23 50.18557 9.22245 6694 ft 264 kts 250°
2026-04-14 08:23 50.17918 9.19601 6555 ft 257 kts 251°
2026-04-14 08:23 50.17283 9.17030 6335 ft 253 kts 250°
2026-04-14 08:23 50.16643 9.14500 6107 ft 248 kts 251°
2026-04-14 08:24 50.15999 9.12023 5887 ft 244 kts 251°
2026-04-14 08:24 50.15365 9.09596 5678 ft 240 kts 251°
2026-04-14 08:24 50.14847 9.07146 5467 ft 236 kts 257°
2026-04-14 08:24 50.14403 9.04682 5263 ft 235 kts 257°
2026-04-14 08:25 50.13951 9.02241 5055 ft 235 kts 256°
2026-04-14 08:25 50.13486 8.99799 4858 ft 235 kts 256°
2026-04-14 08:25 50.13025 8.97355 4649 ft 234 kts 258°
2026-04-14 08:25 50.12591 8.94919 4438 ft 234 kts 256°
2026-04-14 08:26 50.12079 8.92513 4237 ft 234 kts 253°
2026-04-14 08:26 50.11522 8.90125 4084 ft 231 kts 252°
2026-04-14 08:26 50.10972 8.87821 4016 ft 224 kts 253°
2026-04-14 08:26 50.10441 8.85602 3966 ft 211 kts 253°
2026-04-14 08:27 50.09943 8.83515 3828 ft 205 kts 253°
2026-04-14 08:27 50.09448 8.81432 3527 ft 205 kts 253°
2026-04-14 08:27 50.08964 8.79409 3261 ft 193 kts 254°
2026-04-14 08:27 50.08507 8.77494 2971 ft 182 kts 253°
2026-04-14 08:28 50.08077 8.75692 2718 ft 174 kts 253°
2026-04-14 08:28 50.07672 8.73999 2478 ft 159 kts 253°
2026-04-14 08:28 50.07312 8.72493 2287 ft 144 kts 253°
2026-04-14 08:28 50.06967 8.71045 2112 ft 139 kts 253°
2026-04-14 08:29 50.06632 8.69635 1933 ft 138 kts 253°
2026-04-14 08:29 50.06299 8.68242 1729 ft 138 kts 253°
2026-04-14 08:29 50.05965 8.66845 1530 ft 138 kts 253°
2026-04-14 08:29 50.05629 8.65439 1335 ft 138 kts 253°
2026-04-14 08:30 50.05302 8.64064 1103 ft 137 kts 253°
2026-04-14 08:30 50.04969 8.62681 929 ft 133 kts 251°
2026-04-14 08:30 50.04632 8.61333 756 ft 135 kts 252°
2026-04-14 08:30 50.04311 8.59964 588 ft 136 kts 253°
2026-04-14 08:31 50.03991 8.58598 424 ft 134 kts 253°
2026-04-14 08:31 50.03449 8.56320 361 ft 74 kts 249°
2026-04-14 08:31 50.03324 8.55787 354 ft 40 kts 255°
2026-04-14 08:32 50.03322 8.55429 356 ft 28 kts 280°
2026-04-14 08:32 50.03349 8.55182 355 ft 18 kts 279°
2026-04-14 08:32 50.03365 8.55006 349 ft 16 kts 269°
2026-04-14 08:32 50.03339 8.54836 350 ft 16 kts 250°
2026-04-14 08:33 50.03300 8.54670 351 ft 16 kts 249°
2026-04-14 08:33 50.03277 8.54528 350 ft 12 kts 279°
2026-04-14 08:33 50.03341 8.54462 353 ft 11 kts 343°
2026-04-14 08:33 50.03376 8.54444 347 ft 0 kts 340°
2026-04-14 08:35 50.03377 8.54442 353 ft 3 kts 340°
2026-04-14 08:35 50.03431 8.54413 352 ft 10 kts 340°
2026-04-14 08:35 50.03503 8.54372 355 ft 11 kts 340°
2026-04-14 08:35 50.03583 8.54324 353 ft 13 kts 340°
2026-04-14 08:36 50.03647 8.54320 355 ft 10 kts 36°
2026-04-14 08:36 50.03680 8.54411 355 ft 11 kts 69°
2026-04-14 08:36 50.03712 8.54543 355 ft 15 kts 70°
2026-04-14 08:36 50.03751 8.54708 359 ft 18 kts 69°
2026-04-14 08:37 50.03798 8.54900 359 ft 19 kts 69°
2026-04-14 08:37 50.03840 8.55077 358 ft 17 kts 69°
2026-04-14 08:37 50.03880 8.55247 359 ft 16 kts 70°
2026-04-14 08:37 50.03920 8.55412 359 ft 16 kts 69°
2026-04-14 08:38 50.03959 8.55576 363 ft 16 kts 70°
2026-04-14 08:38 50.03998 8.55741 363 ft 16 kts 69°
2026-04-14 08:38 50.04037 8.55904 362 ft 16 kts 69°
2026-04-14 08:38 50.04075 8.56061 363 ft 16 kts 69°
2026-04-14 08:39 50.04112 8.56217 363 ft 15 kts 70°
2026-04-14 08:39 50.04149 8.56372 364 ft 15 kts 69°
2026-04-14 08:39 50.04185 8.56523 367 ft 13 kts 70°
2026-04-14 08:39 50.04218 8.56658 368 ft 13 kts 69°
2026-04-14 08:40 50.04253 8.56785 370 ft 12 kts 49°
2026-04-14 08:40 50.04332 8.56823 369 ft 12 kts 12°
2026-04-14 08:40 50.04415 8.56846 370 ft 12 kts
2026-04-14 08:40 50.04494 8.56870 365 ft 12 kts 13°
2026-04-14 08:41 50.04554 8.56893 369 ft 8 kts 14°
2026-04-14 08:41 50.04587 8.56842 366 ft 7 kts 294°
2026-04-14 08:41 50.04599 8.56801 368 ft 4 kts 294°
2026-04-14 08:41 50.04605 8.56782 367 ft 0 kts 294°